[[{"header":{"parameterUnit":"m.s-1","parameterCategory":1,"la1":30.2991,"la2":30.254,"lo1":-89.0895,"lo2":-89.0444,"dy":0.0017,"dx":0.0017,"nx":28,"ny":28,"refTime":"2025-06-17T21:00:00:Z","depth":0,"parameterNumber":2,"parameterNumberName":"U-component_of_WINDS"},"data":[0,0,0,0,0,0,0,0,0,0,0,0,0,0,0,0,0,0,0,0,0,0,0,0,0,0,0,0,0,0,0,0,0,0,0,0,0,0,0,0,0,0,0,0,0,0,0,0,0,0,0,0,0,0,0,0,0,0,2.6553,2.6554,0,2.6594,2.6594,2.6595,2.664,2.6641,2.6642,2.6642,2.6685,2.6685,2.6686,0,0,0,0,0,0,0,0,0,0,0,0,0,2.6517,2.6517,2.6553,2.6554,2.6554,2.6594,2.6594,2.6595,2.664,2.6641,2.6642,2.6643,2.6685,2.6685,2.6686,0,0,0,0,0,0,0,0,0,0,0,0,0,2.6542,2.6517,2.6553,2.6582,2.6585,2.6594,2.6594,2.6595,2.664,2.6641,2.6642,2.6643,2.6684,2.6685,2.6686,2.667,0,0,2.6688,2.6689,0,0,0,0,0,0,0,0,2.6541,2.6544,2.6577,2.658,2.6583,2.6613,2.6597,2.662,2.664,2.6619,2.6642,2.6644,2.666,2.6663,2.6668,2.6672,2.6674,2.6688,2.6689,2.6689,2.6689,0,0,0,0,0,0,0,2.6539,2.6542,2.6569,2.6577,2.6581,2.6593,2.6598,2.6602,2.6634,2.6621,2.6624,2.6629,2.6662,2.6668,2.667,2.6675,2.6688,2.6689,2.6689,2.669,2.6669,2.6668,0,0,0,0,0,0,2.6533,2.654,2.6568,2.6571,2.6564,2.6593,2.6598,2.6602,2.6634,2.6639,2.6628,2.6631,2.6666,2.6669,2.6671,2.6655,2.6689,2.669,2.669,2.667,2.6668,2.6667,0,0,0,0,0,0,2.6532,2.6535,2.6566,2.6556,2.6561,2.6592,2.6597,2.6603,2.6608,2.6639,2.6645,2.6627,2.6667,2.667,2.667,2.6657,2.669,2.6691,2.6671,2.6669,2.6668,2.6622,0,0,0,0,0,0,2.6531,2.6534,2.6528,2.6556,2.6562,2.6564,2.6596,2.6603,2.6609,2.6613,2.664,2.6645,2.6668,2.6669,2.6671,2.6659,2.6691,2.6672,2.667,2.6668,2.6625,2.6619,2.6615,0,0,0,0,0,2.6529,2.6514,2.6528,2.6531,2.6555,2.6563,2.6566,2.6592,2.6608,2.6602,2.6622,2.6644,2.6659,2.6669,2.6671,2.6659,2.6673,2.6671,2.6668,2.6627,2.662,2.6615,0,0,0,0,0,0,2.6484,2.6518,2.6534,2.6527,2.6542,2.6571,2.6564,2.6584,2.6595,2.6599,2.6631,2.6637,2.6633,2.6646,2.6657,2.6646,2.6669,2.6667,2.6637,2.6631,2.6625,2.6622,2.6692,0,0,0,0,0,2.6473,2.6476,2.6506,2.6497,2.6504,2.6533,2.6538,2.6556,2.6573,2.658,2.66,2.6615,2.6624,2.6628,2.6637,2.6628,2.6634,2.6621,2.6616,2.6611,2.6609,2.6605,2.6599,2.666,2.666,2.666,0,0,2.645,2.647,2.647,2.6489,2.6503,2.6506,2.6538,2.654,2.6543,2.658,2.6581,2.6596,2.6616,2.6611,2.661,2.6623,2.6594,2.6608,2.6605,2.6605,2.6602,2.6596,2.6591,2.6658,2.6659,2.6659,0,0,2.6411,2.6426,2.642,2.6433,2.6454,2.6473,2.6472,2.6498,2.651,2.6511,2.6539,2.6544,2.6557,2.657,2.6578,2.6545,2.6566,2.6548,2.652,2.6515,2.6511,2.6507,2.6494,2.649,2.6545,2.6545,2.6545,0,2.638,2.6386,2.6415,2.6415,2.6423,2.6457,2.6452,2.6463,2.6486,2.649,2.6504,2.6522,2.6538,2.6536,2.6528,2.6534,2.6534,2.6544,2.6509,2.6505,2.6502,2.649,2.6486,2.6543,2.6543,2.6543,2.6544,0,2.6347,2.6351,2.6344,2.6364,2.6372,2.6369,2.6398,2.6402,2.642,2.6438,2.644,2.646,2.6474,2.6476,2.6494,2.6477,2.6484,2.6503,2.6527,2.6493,2.6483,2.6479,2.6539,2.654,2.6541,2.6542,0,0,2.6279,2.6316,2.6313,2.6323,2.6349,2.6352,2.6352,2.6365,2.6368,2.6383,2.6383,2.6394,2.6412,2.6421,2.6442,2.6438,2.641,2.6458,2.6458,2.6447,2.6393,2.6377,2.6372,2.6425,2.6424,2.6423,2.6391,0,2.6244,2.6244,2.627,2.6263,2.6267,2.63,2.63,2.6316,2.6333,2.634,2.6359,2.6366,2.6389,2.6395,2.6393,2.6414,2.6399,2.6417,2.6425,2.6425,2.6418,2.6367,2.635,2.6318,2.6387,2.6386,2.6386,0,2.6202,2.6214,2.6207,2.6233,2.6236,2.6235,2.625,2.6255,2.6275,2.6288,2.6298,2.6322,2.6324,2.6347,2.635,2.6361,2.6367,2.6377,2.6377,2.6378,2.6402,2.6365,2.6309,2.6303,2.638,2.638,2.6381,0,2.6151,2.6166,2.6164,2.6172,2.6203,2.6201,2.6214,2.6235,2.6241,2.6254,2.6259,2.6273,2.628,2.629,2.6317,2.6331,2.6317,2.6342,2.6327,2.6327,2.6322,2.6321,2.6264,2.6327,2.6327,2.6327,2.6327,0,2.6108,2.6103,2.6142,2.6141,2.6136,2.6167,2.6161,2.6177,2.6195,2.6198,2.6229,2.6231,2.6266,2.6272,2.6294,2.6293,2.6296,2.6307,2.6312,2.6303,2.6302,2.6306,2.6309,2.6326,2.6326,2.6326,2.6326,0,2.6051,2.6077,2.6077,2.6106,2.6114,2.6108,2.6134,2.6134,2.6154,2.6157,2.616,2.6191,2.62,2.6228,2.6244,2.6258,2.6251,2.6262,2.6244,2.6247,2.6231,2.6231,2.6173,2.6167,2.6235,2.6234,2.6233,0,2.6021,2.6017,2.6046,2.605,2.6062,2.6068,2.6074,2.6105,2.6111,2.6134,2.6131,2.6143,2.6153,2.6166,2.6191,2.6203,2.6214,2.6193,2.6216,2.6208,2.6213,2.6212,2.6212,2.6188,2.6187,2.6186,2.6185,0,2.5964,2.5978,2.5986,2.5999,2.6007,2.6019,2.6033,2.6034,2.6069,2.6075,2.6084,2.6092,2.6109,2.612,2.6137,2.6151,2.6174,2.6178,2.6175,2.6165,2.6155,2.6159,2.6229,2.6179,2.618,2.618,2.6181,2.6181,2.5919,2.5917,2.5938,2.5946,2.596,2.5973,2.5974,2.5994,2.6003,2.6018,2.6036,2.6044,2.6064,2.6089,2.6102,2.6108,2.612,2.6116,2.6115,2.6113,2.6109,2.6155,2.6112,2.6112,2.6112,2.6112,2.6112,0,2.5864,2.5878,2.5886,2.5905,2.5912,2.5933,2.595,2.5954,2.596,2.5977,2.5987,2.5998,2.6009,2.6035,2.6048,2.6049,2.606,2.6051,2.6051,2.6054,2.6097,2.6098,2.6042,2.6042,2.6042,2.6042,2.6042,2.6042,2.5835,2.5834,2.5849,2.5855,2.5871,2.5878,2.5885,2.5897,2.5911,2.5922,2.5931,2.5948,2.5968,2.5984,2.5995,2.6003,2.6006,2.5993,2.6004,2.6044,2.6051,2.6057,2.6058,2.5994,2.5994,2.596,2.5959,2.5959]},{"header":{"parameterUnit":"m.s-1","parameterCategory":1,"la1":30.2991,"la2":30.254,"lo1":-89.0895,"lo2":-89.0444,"dy":0.0017,"dx":0.0017,"nx":28,"ny":28,"refTime":"2025-06-17T21:00:00:Z","depth":0,"parameterNumber":3,"parameterNumberName":"V-component_of_WINDS"},"data":[0,0,0,0,0,0,0,0,0,0,0,0,0,0,0,0,0,0,0,0,0,0,0,0,0,0,0,0,0,0,0,0,0,0,0,0,0,0,0,0,0,0,0,0,0,0,0,0,0,0,0,0,0,0,0,0,0,0,1.8296,1.8297,0,1.834,1.834,1.8341,1.8342,1.8341,1.8341,1.834,1.8383,1.8385,1.8386,0,0,0,0,0,0,0,0,0,0,0,0,0,1.8211,1.8213,1.8296,1.8297,1.8297,1.8339,1.834,1.8341,1.8342,1.8341,1.8341,1.834,1.8382,1.8384,1.8386,0,0,0,0,0,0,0,0,0,0,0,0,0,1.8251,1.8213,1.8296,1.8303,1.8304,1.8339,1.834,1.8341,1.8342,1.8341,1.8341,1.834,1.8382,1.8384,1.8387,1.8417,0,0,1.8394,1.8395,0,0,0,0,0,0,0,0,1.8248,1.8254,1.8302,1.8303,1.8304,1.8335,1.8326,1.8366,1.8342,1.8328,1.834,1.8339,1.8367,1.8371,1.8381,1.8419,1.8421,1.8394,1.8396,1.8397,1.8398,0,0,0,0,0,0,0,1.8246,1.8252,1.8313,1.8302,1.8304,1.8303,1.8308,1.8333,1.8351,1.8329,1.8329,1.8334,1.8368,1.8378,1.8382,1.8422,1.8394,1.8396,1.8398,1.8399,1.8484,1.8485,0,0,0,0,0,0,1.8242,1.825,1.8312,1.8315,1.8274,1.8305,1.831,1.8325,1.8351,1.8354,1.8335,1.8334,1.8375,1.8379,1.8383,1.8419,1.8397,1.8399,1.84,1.8483,1.8484,1.8485,0,0,0,0,0,0,1.824,1.8247,1.831,1.8282,1.829,1.8307,1.8324,1.8327,1.8337,1.8356,1.8359,1.8343,1.8374,1.838,1.8408,1.842,1.84,1.8402,1.8482,1.8484,1.8485,1.8491,0,0,0,0,0,0,1.8238,1.8247,1.826,1.8282,1.8292,1.8336,1.8325,1.8328,1.8342,1.8341,1.8364,1.8367,1.8374,1.8405,1.8411,1.8423,1.8404,1.8481,1.8483,1.8484,1.849,1.8493,1.8495,0,0,0,0,0,1.8235,1.826,1.826,1.8268,1.8308,1.8336,1.8341,1.835,1.8343,1.8355,1.8366,1.8366,1.8418,1.8408,1.8414,1.8428,1.8481,1.8483,1.8484,1.8489,1.8492,1.8495,0,0,0,0,0,0,1.8239,1.8263,1.8264,1.8298,1.8315,1.8337,1.8353,1.8353,1.8373,1.8371,1.838,1.8385,1.8413,1.8423,1.8411,1.8457,1.8448,1.8452,1.845,1.8453,1.8455,1.8451,1.8406,0,0,0,0,0,1.8243,1.8265,1.8285,1.8313,1.8322,1.8335,1.8348,1.8353,1.8371,1.8378,1.8392,1.8408,1.8428,1.8441,1.8461,1.8492,1.8495,1.8504,1.8506,1.8508,1.8511,1.8525,1.8528,1.8491,1.8491,1.8491,0,0,1.8254,1.827,1.8283,1.8314,1.8328,1.8349,1.8342,1.8365,1.8379,1.8381,1.8408,1.8419,1.8438,1.8467,1.848,1.8476,1.8521,1.851,1.8512,1.8513,1.8527,1.8531,1.8534,1.8492,1.8492,1.8492,0,0,1.8282,1.8298,1.8321,1.8335,1.8356,1.8364,1.837,1.8391,1.8398,1.8425,1.8426,1.8443,1.8478,1.8491,1.8502,1.8532,1.8532,1.8538,1.855,1.8564,1.8567,1.857,1.8579,1.8582,1.8541,1.8541,1.8541,0,1.8292,1.8325,1.8333,1.8355,1.8368,1.837,1.8393,1.8406,1.8432,1.844,1.8435,1.8477,1.849,1.8521,1.8528,1.8537,1.8542,1.8536,1.8566,1.8569,1.8571,1.858,1.8583,1.8542,1.8541,1.8541,1.8541,0,1.8334,1.8356,1.8373,1.8397,1.8412,1.8434,1.8445,1.8458,1.8461,1.8469,1.8496,1.8511,1.8533,1.8541,1.8544,1.8571,1.8568,1.8565,1.8556,1.8575,1.8583,1.8587,1.8542,1.8542,1.8542,1.8542,0,0,1.8368,1.8395,1.8401,1.8411,1.8433,1.8449,1.8471,1.8492,1.8502,1.8519,1.8536,1.8564,1.856,1.8573,1.8577,1.859,1.861,1.8585,1.8585,1.8587,1.8638,1.8639,1.8643,1.861,1.8611,1.8611,1.8636,0,1.8398,1.8436,1.8443,1.8477,1.8495,1.8497,1.8515,1.8529,1.8537,1.8554,1.8562,1.8581,1.8576,1.8583,1.8596,1.8605,1.862,1.8604,1.8624,1.8625,1.8618,1.8648,1.865,1.8672,1.8639,1.864,1.864,0,1.8438,1.8455,1.849,1.8507,1.8515,1.8531,1.855,1.8566,1.8581,1.8586,1.8599,1.8601,1.8622,1.8612,1.8639,1.8627,1.8636,1.8642,1.8643,1.8644,1.8633,1.8648,1.868,1.8683,1.8646,1.8645,1.8645,0,1.8456,1.8488,1.8512,1.8521,1.8542,1.8553,1.8562,1.8577,1.8588,1.8604,1.8611,1.8629,1.8638,1.8651,1.8658,1.8651,1.8684,1.8675,1.8687,1.8686,1.8693,1.8692,1.8725,1.8701,1.8701,1.8701,1.87,0,1.8488,1.8508,1.8521,1.8535,1.8558,1.8565,1.8587,1.8595,1.8608,1.8623,1.8626,1.864,1.8649,1.8663,1.8669,1.8689,1.8693,1.8697,1.8697,1.8696,1.8695,1.8701,1.8699,1.8701,1.8701,1.8701,1.8701,0,1.8512,1.8521,1.8547,1.8564,1.8569,1.8584,1.8598,1.8612,1.8619,1.8638,1.8643,1.8654,1.8672,1.868,1.8702,1.8705,1.8727,1.8728,1.8722,1.8722,1.8732,1.8731,1.8769,1.8774,1.8747,1.8748,1.8748,0,1.8531,1.8546,1.8565,1.8575,1.8584,1.8601,1.8612,1.862,1.8631,1.8648,1.8659,1.8676,1.8691,1.8718,1.8728,1.8743,1.8743,1.8756,1.8746,1.8743,1.8742,1.874,1.8741,1.8757,1.8757,1.8758,1.8758,0,1.8562,1.8566,1.8582,1.8599,1.8612,1.8626,1.864,1.8648,1.8657,1.8669,1.8687,1.8698,1.8719,1.8735,1.8751,1.8759,1.8759,1.8761,1.8764,1.8762,1.8757,1.8758,1.8725,1.876,1.876,1.8759,1.8759,1.8759,1.8583,1.8596,1.8611,1.8628,1.8639,1.8651,1.8663,1.8672,1.8687,1.8705,1.8708,1.8726,1.8739,1.8761,1.8769,1.8782,1.8779,1.8785,1.8786,1.8786,1.8786,1.8756,1.8785,1.8785,1.8785,1.8785,1.8785,0,1.8614,1.8622,1.8638,1.8656,1.8669,1.8669,1.8683,1.8693,1.871,1.8722,1.8735,1.8754,1.877,1.878,1.8795,1.8804,1.8804,1.8808,1.8806,1.8808,1.8789,1.8784,1.8807,1.8807,1.8807,1.8807,1.8807,1.8807,1.8631,1.8652,1.8657,1.8682,1.8691,1.8709,1.8717,1.8727,1.8737,1.8758,1.8771,1.8777,1.8788,1.8804,1.8817,1.882,1.8824,1.8828,1.883,1.8812,1.8809,1.8807,1.8802,1.8829,1.8829,1.8848,1.8848,1.8848]}]]